Simultaneous Nadir Overpasses (SNOs) Predictions

Prediction of SNOs between AQUA and METOP-A Satellite Orbit:

Table of predicted SNOs for the next 14.0 days since TLE Epoch: 9/2/2016
Index Date (AQUA) Time (AQUA) Lat,Lon (AQUA) SZA (AQUA ) Date (METOP-A) Time (METOP-A) Lat,Lon (METOP-A) SZA (METOP-A ) Distance(km) Time Diff (sec)
1 09/03/2016 15:30:22 -73.70, 121.82 113.54 09/03/2016 15:29:09 -73.68, 121.34 113.54 15.34 73
2 09/03/2016 16:19:52 73.84, -70.85 66.62 09/03/2016 16:19:45 73.86, -70.89 66.64 2.26 7
3 09/03/2016 17:09:19 -73.91, 96.65 113.30 09/03/2016 17:10:26 -73.90, 96.55 113.31 3.36 67
4 09/06/2016 11:04:39 -73.80,-171.95 112.40 09/06/2016 11:03:30 -73.80,-171.95 112.39 0.17 69
5 09/06/2016 11:54:08 73.89, -4.52 67.71 09/06/2016 11:54:08 73.89, -4.41 67.70 3.20 0
6 09/06/2016 12:43:35 -73.95, 162.99 112.21 09/06/2016 12:44:48 -73.98, 163.14 112.20 5.39 73
7 09/09/2016 06:38:53 -73.81,-105.53 111.34 09/09/2016 06:37:52 -73.82,-105.49 111.32 2.06 61
8 09/09/2016 07:28:21 73.85, 62.02 68.72 09/09/2016 07:28:31 73.86, 61.93 68.73 3.05 10
9 09/09/2016 08:17:55 -74.27,-131.30 110.83 09/09/2016 08:19:04 -74.29,-129.66 110.85 49.44 69
10 09/12/2016 02:13:08 -73.83, -39.13 110.26 09/12/2016 02:12:15 -73.84, -39.03 110.24 3.50 53
11 09/12/2016 03:02:36 73.87, 128.41 69.80 09/12/2016 03:02:54 73.88, 128.39 69.81 1.56 18
12 09/12/2016 03:52:16 -74.59, -65.64 109.42 09/12/2016 03:53:21 -74.60, -62.44 109.49 94.64 65
13 09/14/2016 21:47:22 -73.80, 27.36 109.21 09/14/2016 21:46:39 -73.81, 27.30 109.20 1.99 43
14 09/14/2016 22:36:51 73.90,-165.21 70.90 09/14/2016 22:37:17 73.89,-165.16 70.90 1.57 26




NCC Satellite Simultaneous Nadir Overpasses (SNOs) Prediction Service
